WetterOnline ( https://www.wetteronline.de )

Wetter aktuell Konstanz

Aktuelles Wetter: Konstanz (397m)

6-stündlich | Neueste Meldungen
Ortszeit Temperatur Wetter
Mo, 26.02. 7:00 5.2° C bewölkt
Mo, 26.02. 1:00 4.6° C bedeckt
So, 25.02. 19:00 5.0° C wolkig
So, 25.02. 13:00 8.6° C wolkenlos
So, 25.02. 7:00 0.1° C wolkenlos
So, 25.02. 1:00 3.5° C wolkig
Sa, 24.02. 19:00 5.6° C wolkig
Sa, 24.02. 13:00 9.0° C wolkig
Ortszeit Temperatur Wetter
Mo, 26.02. 9:00 6.0° C bedeckt
Mo, 26.02. 8:50 6.0° C bedeckt
Mo, 26.02. 8:40 5.9° C bedeckt
Mo, 26.02. 8:30 5.6° C bewölkt
Mo, 26.02. 8:20 5.6° C bewölkt
Mo, 26.02. 8:10 4.7° C bedeckt
Mo, 26.02. 8:00 4.7° C bewölkt
Mo, 26.02. 7:30 5.3° C bewölkt
Mo, 26.02. 7:00 5.2° C bewölkt
Mo, 26.02. 6:30 5.4° C bewölkt
Mo, 26.02. 6:00 4.9° C bewölkt
Ortszeit Relative Feuchte Sichtweite
Mo, 26.02. 7:00 67% 65 km
Mo, 26.02. 1:00 75% 65 km
So, 25.02. 19:00 75% 45 km
So, 25.02. 13:00 53% 55 km
So, 25.02. 7:00 94% 23 km
So, 25.02. 1:00 86% 65 km
Sa, 24.02. 19:00 73% >70 km
Sa, 24.02. 13:00 48% 65 km
Ortszeit Relative Feuchte Sichtweite
Mo, 26.02. 9:00 67% 55 km
Mo, 26.02. 8:50 67% -
Mo, 26.02. 8:40 71% -
Mo, 26.02. 8:30 72% 60 km
Mo, 26.02. 8:20 72% -
Mo, 26.02. 8:10 76% -
Mo, 26.02. 8:00 72% 50 km
Mo, 26.02. 7:30 66% 65 km
Mo, 26.02. 7:00 67% 65 km
Mo, 26.02. 6:30 72% >70 km
Mo, 26.02. 6:00 77% 65 km
Ortszeit Niederschlagsmenge Niederschlagsart
Mo, 26.02. 7:00 0.0 l/m2 in 12 Std. -
Mo, 26.02. 1:00 0.0 l/m2 in 6 Std. -
So, 25.02. 19:00 0.0 l/m2 in 12 Std. -
So, 25.02. 13:00 0.0 l/m2 in 6 Std. -
So, 25.02. 7:00 0.1 l/m2 in 12 Std. -
So, 25.02. 1:00 0.1 l/m2 in 6 Std. Regen
Sa, 24.02. 19:00 0.1 l/m2 in 12 Std. Regen
Sa, 24.02. 13:00 0.1 l/m2 in 6 Std. Regen
Ortszeit Niederschlagsmenge Niederschlagsart
Mo, 26.02. 9:00 0.0 l/m2 in 1 Std. -
Mo, 26.02. 8:50 keine Meldung -
Mo, 26.02. 8:40 keine Meldung -
Mo, 26.02. 8:30 0.0 l/m2 in 30 Min -
Mo, 26.02. 8:20 keine Meldung -
Mo, 26.02. 8:10 keine Meldung -
Mo, 26.02. 8:00 0.0 l/m2 in 1 Std. -
Mo, 26.02. 7:30 0.0 l/m2 in 30 Min -
Mo, 26.02. 7:00 0.0 l/m2 in 1 Std. -
Mo, 26.02. 6:30 0.0 l/m2 in 30 Min -
Mo, 26.02. 6:00 0.0 l/m2 in 1 Std. -
Ortszeit Stärke Spitze Richtung
km/h Bft. km/h Grad Sektor
Mo, 26.02. 7:00 9 2 24 280° W
Mo, 26.02. 1:00 4 1 11 250° W
So, 25.02. 19:00 6 1 17 80° O
So, 25.02. 13:00 13 3 17 250° W
So, 25.02. 7:00 4 1 11 290° W
So, 25.02. 1:00 7 2 14 60° NO
Sa, 24.02. 19:00 9 2 26 300° NW
Sa, 24.02. 13:00 4 1 43 280° W
Ortszeit Stärke Spitze Richtung
km/h Bft. km/h Grad Sektor
Mo, 26.02. 9:00 0 0 7 - -
Mo, 26.02. 8:50 0 0 - 120° SO
Mo, 26.02. 8:40 4 1 - 130° SO
Mo, 26.02. 8:30 4 1 7 60° NO
Mo, 26.02. 8:20 4 1 - 60° NO
Mo, 26.02. 8:10 4 1 - 40° NO
Mo, 26.02. 8:00 2 1 13 50° NO
Mo, 26.02. 7:30 7 2 14 280° W
Mo, 26.02. 7:00 9 2 24 280° W
Mo, 26.02. 6:30 19 3 24 300° NW
Mo, 26.02. 6:00 9 2 19 300° NW
Ortszeit Untergrenze Bedeckung Gattung
total tief tief mittel hoch
Mo, 26.02. 7:00 2100 m 8/8 5/8 - - -
Mo, 26.02. 1:00 2100 m 8/8 8/8 - - -
So, 25.02. 19:00 3600 m 8/8 1/8 - - -
So, 25.02. 13:00 - 0/8 0/8 - - -
So, 25.02. 7:00 - 0/8 0/8 - - -
So, 25.02. 1:00 2100 m 6/8 6/8 - - -
Sa, 24.02. 19:00 840 m 8/8 1/8 - - -
Sa, 24.02. 13:00 1380 m 6/8 6/8 - - -
Ortszeit Bedeckungsgrad in Achtel und Wolkenuntergrenze
Mo, 26.02. 9:00 3(3900m) 8(4500m) 8(5700m)
Mo, 26.02. 8:50 3(3900m) 8(4500m) 8(5700m)
Mo, 26.02. 8:40 8
Mo, 26.02. 8:30 5(2100m) 8(4200m) 8(5400m)
Mo, 26.02. 8:20 5(2100m) 8(4200m) 8(5400m)
Mo, 26.02. 8:10 8
Mo, 26.02. 8:00 4(2100m) 7(2700m) 8(3300m)
Mo, 26.02. 7:30 3(1800m) 7(2700m) 8(3600m)
Mo, 26.02. 7:00 5(2100m) 8(3600m) 8(5100m)
Mo, 26.02. 6:30 7(2100m) 8(3000m)
Mo, 26.02. 6:00 4(2100m) 8(4800m) 8(5700m)
Ortszeit Luftdruck NN (hPa) Tendenz (hPa in 3 Std.)
Mo, 26.02. 7:00 999 + 0,3
Mo, 26.02. 1:00 999 - 0,7
So, 25.02. 19:00 1002 - 1,7
So, 25.02. 13:00 1006 - 2,0
So, 25.02. 7:00 1010 - 0,3
So, 25.02. 1:00 1010 + 0,2
Sa, 24.02. 19:00 1008 + 1,6
Sa, 24.02. 13:00 1006 + 0,5
Ortszeit Luftdruck NN (hPa) Tendenz (hPa in 3 Std.)
Mo, 26.02. 9:00 1000 + 1,0
Mo, 26.02. 8:50 1000 keine Meldung
Mo, 26.02. 8:40 1000 keine Meldung
Mo, 26.02. 8:30 1000 + 1,7
Mo, 26.02. 8:20 1000 keine Meldung
Mo, 26.02. 8:10 1000 keine Meldung
Mo, 26.02. 8:00 1000 + 1,5
Mo, 26.02. 7:30 999 + 0,7
Mo, 26.02. 7:00 999 + 0,3
Mo, 26.02. 6:30 999 + 0,2
Mo, 26.02. 6:00 999 + 0,2
Ortszeit Schneehöhe (cm)
Mo, 26.02. 7:00 0
Mo, 26.02. 1:00 0
So, 25.02. 19:00 0
So, 25.02. 13:00 0
So, 25.02. 7:00 0
So, 25.02. 1:00 0
Sa, 24.02. 19:00 0
Sa, 24.02. 13:00 0
Ortszeit Schneehöhe (cm)
Mo, 26.02. 9:00 0
Mo, 26.02. 8:50 0
Mo, 26.02. 8:40 -
Mo, 26.02. 8:30 0
Mo, 26.02. 8:20 0
Mo, 26.02. 8:10 -
Mo, 26.02. 8:00 0
Mo, 26.02. 7:30 0
Mo, 26.02. 7:00 0
Mo, 26.02. 6:30 0
Mo, 26.02. 6:00 0
Link zu dieser Seite / Seite empfehlen

Das Wetter in ...